GFSSE_850_rhum_237.txt.gz
RH
48 50 52 51 53 51 45 44 44 40 36 30 21 16 15 16 21 26 25 28 32 33 34 34 33 36 42 40 38 39 40 38 36 38 36 32 30 34 37 46 56 69 73
40 54 57 54 54 53 50 47 47 40 26 24 25 22 17 20 24 25 29 30 29 31 32 32 36 47 44 43 40 39 42 48 38 37 36 28 25 36 41 47 64 96 80
35 50 57 57 56 54 52 49 48 36 26 30 35 33 28 24 26 28 31 30 28 30 32 36 49 51 48 47 53 56 53 48 46 45 43 57 58 32 40 47 54 68 88
32 43 52 58 59 57 54 50 44 40 43 42 40 38 33 28 25 26 28 29 28 27 30 34 43 49 51 51 53 56 60 58 58 57 54 49 58 44 34 39 50 48 53
32 37 50 55 60 60 58 52 48 48 50 52 50 46 39 29 23 22 21 23 24 26 28 32 37 45 50 51 53 52 56 60 58 59 56 57 71 48 36 31 37 52 54
39 37 43 49 58 60 61 56 53 54 55 56 53 49 42 36 26 22 20 21 22 24 27 30 32 37 41 46 50 50 49 54 57 55 54 55 59 54 57 38 31 34 36
36 34 41 46 51 60 61 59 56 57 59 60 56 51 45 38 30 22 20 20 21 22 24 28 36 38 40 43 45 50 52 48 52 55 61 58 64 62 52 32 29 34 32
33 34 42 47 50 55 58 58 57 59 60 61 57 48 42 36 31 23 20 19 20 22 23 26 33 40 41 42 45 48 53 56 53 54 55 56 54 62 58 49 53 45 34
40 36 40 43 50 53 55 57 58 58 57 53 48 43 42 39 37 32 24 21 21 22 24 26 30 40 44 42 43 45 49 53 60 61 59 57 51 52 60 56 56 57 52
52 47 39 41 46 50 51 55 56 55 53 47 41 38 39 41 43 42 36 28 24 24 25 26 29 33 48 51 50 49 49 51 53 55 62 59 56 54 52 55 58 60 58
51 55 50 39 40 41 40 41 45 46 46 44 43 43 44 48 49 49 47 43 35 29 28 29 31 33 39 56 62 61 58 55 55 57 56 60 63 55 54 52 46 46 49
44 39 53 48 39 41 40 42 43 45 46 48 52 53 52 54 56 57 57 57 53 46 40 39 40 47 61 54 54 65 72 69 60 55 54 55 54 60 56 53 50 46 48
37 38 41 52 45 44 42 44 48 50 51 54 57 56 57 61 64 66 69 70 68 63 56 51 54 70 77 81 80 72 67 64 67 66 62 58 56 56 59 54 50 49 46
37 40 41 42 48 46 48 48 50 53 54 57 59 61 73 74 76 76 79 79 77 71 68 70 76 84 89 93 93 92 88 83 80 78 76 75 68 63 60 62 55 51 50
45 47 48 49 49 50 50 50 52 57 63 64 66 85 85 84 84 82 81 80 81 83 86 84 84 87 92 92 93 94 95 93 90 88 83 82 81 69 65 63 64 58 54
52 56 55 56 54 55 57 60 62 67 68 78 83 82 83 81 79 81 82 80 78 77 90 92 96 95 88 90 92 96 94 97 94 90 90 85 80 86 80 74 66 64 61
49 60 62 65 67 72 72 71 70 72 87 81 84 89 88 82 76 76 78 77 74 70 78 98 99 99 99 98 95 94 97 94 86 93 98 97 98 87 87 83 80 77 70
39 56 71 74 78 74 74 79 88 86 83 84 83 86 82 75 77 76 74 73 78 82 98 98 99 98 100 100 98 99 100 95 85 90 86 86 92 96 99 96 93 84 82
33 55 78 84 84 78 81 87 97 88 82 81 84 84 81 79 75 75 77 73 70 67 64 58 51 48 46 52 65 63 59 68 68 74 78 77 78 79 84 90 95 100 97
37 59 83 86 91 85 85 99 100 95 89 82 86 80 70 54 43 35 29 26 27 29 29 28 28 31 36 40 38 43 30 27 24 28 49 82 73 77 79 80 85 85 95
49 55 86 96 100 94 92 96 99 86 88 85 63 38 24 18 18 17 16 17 17 18 20 22 28 40 44 52 66 80 69 57 45 56 44 81 86 76 69 69 78 85 83
59 58 70 97 94 93 93 92 76 80 70 49 31 23 21 19 14 11 10 10 11 16 20 29 40 49 55 55 65 77 66 65 84 65 50 46 53 47 51 59 71 82 90
58 63 75 99 93 99 100 90 84 76 44 27 24 20 12 8 7 7 9 13 17 20 25 28 33 42 44 41 41 66 71 67 84 71 76 74 53 50 46 42 43 45 54
65 96 92 96 99 100 98 83 74 50 26 19 11 7 6 7 8 12 16 19 23 26 27 25 29 34 32 29 26 25 27 42 90 63 57 64 83 75 44 43 45 47 47
91 98 99 98 100 99 82 55 35 23 12 9 7 6 8 11 14 17 22 25 25 26 28 28 27 28 29 28 25 26 30 38 67 79 70 55 72 79 85 81 79 48 47
99 99 97 99 88 62 31 19 15 14 11 8 8 10 14 18 22 26 27 28 29 30 31 34 35 35 36 35 34 33 32 45 57 72 71 66 74 72 93 96 91 74 63

GFSSE_850_rhum_243.txt.gz
RH
46 38 40 43 48 54 62 65 64 58 53 42 30 20 19 23 24 30 33 33 34 34 31 30 36 36 35 34 34 33 30 28 26 32 65 43 34 49 60 89 89 94 90
53 37 42 43 43 48 52 52 52 50 39 26 17 14 17 23 22 25 28 29 30 30 28 34 37 38 38 41 41 39 36 35 40 72 76 72 25 37 54 77 72 81 97
57 41 44 45 43 43 43 42 41 35 24 21 19 15 18 23 24 26 25 26 27 27 28 31 34 38 41 44 45 43 40 40 42 65 68 72 57 21 37 46 56 74 72
59 44 44 47 47 46 46 42 32 23 27 30 26 20 17 20 24 26 27 27 25 27 29 31 33 35 37 40 42 44 46 43 52 69 64 59 74 26 16 34 45 40 83
62 64 46 48 50 49 49 43 29 28 34 35 32 25 20 18 19 22 25 27 27 25 28 31 34 35 38 40 42 42 41 43 63 67 59 66 67 36 17 14 33 26 29
64 63 46 50 52 52 50 44 37 41 42 42 39 35 28 20 19 19 23 26 27 28 27 31 33 34 37 38 41 45 46 45 66 67 72 73 84 37 22 21 15 13 12
64 74 51 52 55 55 54 48 45 48 48 48 45 40 34 28 22 20 22 25 27 27 25 29 32 34 37 38 39 40 41 43 50 65 65 64 74 38 35 27 29 28 23
68 87 51 54 57 58 57 53 48 53 55 55 54 49 42 38 31 26 25 25 26 27 28 30 32 37 42 42 42 41 42 42 63 66 62 59 69 47 40 36 35 32 31
78 88 50 54 59 60 61 59 55 58 61 62 62 56 50 46 42 34 27 26 27 28 29 30 32 33 37 44 46 47 46 44 41 62 65 57 63 51 46 42 42 40 38
93 93 67 54 59 61 64 65 64 65 68 72 68 60 54 50 48 45 39 32 28 28 29 30 30 31 32 36 43 49 50 49 66 69 63 63 64 52 50 50 46 45 41
91 92 94 94 69 72 71 68 70 72 72 73 71 65 60 69 63 62 59 53 44 37 33 32 31 32 33 40 72 67 45 62 72 68 63 65 69 54 50 53 54 48 46
83 91 92 93 94 97 90 87 72 75 76 76 74 64 60 88 84 85 82 58 58 55 50 45 42 43 55 81 78 77 79 78 81 72 70 72 72 60 57 54 51 53 51
77 88 74 92 96 97 81 91 99 98 99 97 93 90 93 88 93 78 89 74 74 73 66 81 82 81 85 83 82 84 84 96 84 74 71 75 69 65 66 68 61 57 56
71 88 92 92 94 95 84 93 98 98 93 95 88 96 95 93 93 90 75 82 82 86 86 87 88 87 96 98 97 94 96 95 95 92 91 86 91 81 72 64 68 68 62
67 85 73 53 53 55 85 77 94 93 81 67 87 95 88 88 90 91 88 88 92 92 92 92 89 91 93 96 99 96 84 95 95 98 98 99 100 97 90 83 78 69 71
61 82 60 51 54 51 56 96 74 88 96 91 84 86 89 90 87 92 86 92 85 83 90 95 91 93 94 94 97 96 100 100 99 98 98 99 96 96 99 98 97 92 89
56 78 84 42 48 56 61 62 54 84 88 85 82 89 88 82 78 88 86 89 96 85 80 85 97 100 96 84 80 83 88 80 76 76 84 78 69 74 82 87 86 90 92
53 70 95 72 50 51 76 66 90 87 88 92 95 84 85 79 82 80 97 94 78 83 97 89 77 60 52 53 51 51 50 48 49 55 47 44 50 63 62 65 88 100 99
49 64 86 94 90 84 96 98 95 95 96 89 91 86 88 88 88 88 97 86 74 71 62 63 57 61 64 59 58 55 52 51 52 47 50 51 58 64 69 73 70 74 81
45 61 82 90 96 100 99 99 97 90 98 96 97 87 85 87 84 78 74 45 39 54 59 71 68 74 71 62 64 56 50 47 44 55 55 59 60 56 63 65 71 65 62
44 61 80 88 97 100 98 97 99 98 97 94 84 85 85 77 64 30 52 26 45 66 68 75 69 61 54 58 52 44 35 33 41 39 57 52 47 55 55 64 65 61 64
52 66 78 85 98 99 98 98 100 97 94 91 88 83 75 55 19 13 15 45 49 66 72 70 39 49 41 44 46 49 38 36 31 36 38 48 38 57 55 46 56 60 58
62 71 75 83 96 99 99 100 99 94 87 82 81 76 47 19 13 12 19 41 24 44 55 45 43 48 42 44 43 43 40 39 46 43 42 41 44 46 46 44 46 49 55
64 72 94 92 96 99 100 100 92 94 82 75 71 59 30 19 21 28 25 18 21 49 53 46 45 40 51 46 47 42 48 51 50 48 42 40 41 42 44 46 48 50 55
63 74 100 98 96 98 99 99 98 89 76 65 57 56 46 33 39 40 17 18 49 47 47 44 60 60 56 54 52 54 54 54 52 51 49 46 46 46 46 46 47 52 50
62 78 91 99 97 99 98 99 92 77 64 60 58 58 62 63 44 39 35 54 53 45 57 57 56 60 65 69 71 65 59 56 55 56 56 56 54 52 49 49 50 50 49

GFSSE_850_rhum_246.txt.gz
RH
46 31 35 38 44 52 60 61 59 54 49 33 16 16 18 20 21 23 26 27 27 24 27 32 32 33 34 32 28 26 24 39 56 64 52 20 19 28 73 81 79 37 40
40 33 35 34 45 54 55 56 50 47 38 22 14 15 18 19 19 22 23 25 26 23 27 30 32 34 36 35 35 32 35 51 66 72 75 78 34 21 34 49 33 16 17
35 34 36 35 38 40 43 43 42 37 25 18 14 16 19 20 21 21 22 22 24 24 28 31 33 36 38 38 38 38 32 46 64 66 76 95 71 23 18 18 19 28 18
26 34 36 37 39 40 40 39 36 26 21 23 19 17 20 21 22 23 23 23 23 26 28 31 32 35 37 38 37 38 38 56 64 66 66 82 76 39 14 22 19 22 20
35 35 37 40 41 42 42 38 25 22 28 27 24 20 19 20 22 22 23 23 24 24 26 30 32 33 33 35 37 37 39 60 65 61 68 62 74 32 16 14 14 18 26
57 39 40 43 44 45 44 34 23 30 34 35 33 27 22 21 22 22 23 22 24 24 25 28 32 34 34 35 36 37 38 57 63 66 71 68 63 40 27 20 23 23 17
59 49 42 46 48 47 44 36 32 38 42 43 41 37 31 25 22 21 20 20 19 19 21 24 27 31 36 37 36 37 37 37 56 63 64 63 66 64 39 28 28 24 24
59 60 44 47 52 51 49 43 43 46 50 52 50 44 38 33 25 21 19 18 18 19 22 24 26 28 33 37 40 40 39 37 54 68 62 59 66 64 48 40 36 33 31
66 67 45 46 53 55 55 51 52 54 58 60 59 54 45 38 34 27 22 19 19 20 22 24 26 28 28 31 34 40 43 42 44 64 65 61 60 61 51 41 43 41 38
74 66 43 46 50 57 59 58 58 61 64 66 67 62 54 46 43 40 36 30 26 23 22 22 24 25 27 29 52 63 40 38 72 70 65 62 63 63 56 45 43 46 44
82 59 43 47 51 56 60 63 64 65 68 69 70 66 58 51 62 49 50 50 45 40 36 32 30 30 36 57 79 77 71 77 79 73 70 67 66 66 62 50 49 45 43
89 90 47 47 46 56 61 63 66 67 68 70 70 65 56 80 90 86 82 64 57 57 53 49 48 47 70 84 87 88 78 89 80 78 73 69 70 71 66 61 65 62 56
84 92 85 57 51 56 89 67 69 68 72 75 76 66 60 85 96 89 81 76 78 75 68 79 81 81 84 91 92 92 89 86 87 84 81 88 88 90 86 84 75 69 69
78 84 91 91 78 81 90 88 81 77 89 86 87 83 80 92 81 76 87 86 81 77 82 87 90 90 94 94 87 93 94 96 96 97 94 88 94 93 96 96 92 90 86
70 83 74 91 87 81 88 91 89 81 93 97 87 80 80 88 78 78 89 77 81 87 90 88 87 88 85 86 94 97 95 97 94 91 88 87 86 88 80 88 87 90 90
61 76 76 85 93 82 93 94 88 83 86 68 87 90 80 85 89 83 82 86 89 91 94 86 84 84 82 87 78 74 74 66 67 65 76 83 75 71 70 72 69 73 76
52 70 78 68 61 72 76 81 74 91 92 69 69 82 82 81 85 82 84 84 85 75 75 86 87 82 74 71 68 58 59 54 54 51 61 56 46 49 54 61 80 83 88
46 57 72 89 49 49 59 80 85 78 88 84 86 82 82 84 81 80 82 84 86 82 86 90 79 65 56 52 54 53 52 51 48 49 50 48 46 49 58 66 67 68 70
41 49 66 79 72 52 61 77 72 88 83 84 84 83 85 82 81 81 86 83 84 83 69 59 57 58 57 54 59 57 53 41 53 48 48 58 57 57 57 56 64 63 61
38 50 59 69 76 81 73 89 85 88 88 87 86 86 82 80 83 84 89 71 50 56 59 52 43 35 44 60 57 37 39 22 34 46 58 52 60 58 51 55 60 63 63
34 55 63 72 77 91 90 97 90 90 92 91 97 83 82 80 82 80 68 40 45 50 51 45 26 33 38 48 33 31 17 31 34 37 45 48 44 51 48 52 59 50 48
34 52 63 77 82 86 98 97 91 90 97 100 92 83 81 78 74 52 54 48 57 54 37 26 14 16 37 42 37 35 40 23 35 34 24 28 42 44 44 42 39 41 45
34 48 65 77 82 85 98 96 96 98 99 99 96 89 82 76 50 26 32 16 29 43 41 27 20 23 22 38 45 44 45 44 43 38 37 42 41 40 42 44 45 48 46
38 45 64 77 76 82 98 98 95 97 94 94 86 79 77 60 25 17 10 14 21 30 22 28 34 27 32 35 45 48 46 51 55 58 56 54 48 47 44 45 46 48 51
38 50 61 72 75 78 93 96 97 95 89 85 78 77 66 40 21 12 14 19 20 30 25 18 19 22 26 51 53 45 58 58 58 57 60 62 61 59 52 57 53 48 52
44 56 66 73 81 78 86 92 97 96 86 79 71 62 59 41 24 22 27 25 24 20 23 24 23 25 43 39 51 72 70 68 66 67 67 65 65 64 63 60 63 60 59

GFSSE_850_rhum_252.txt.gz
RH
36 38 39 40 44 52 58 53 48 34 15 14 16 16 16 16 16 17 18 21 24 26 29 30 30 27 24 29 46 63 67 70 71 64 64 34 21 22 19 16 16 18 26
31 30 33 37 42 53 57 52 45 31 14 14 17 16 16 17 17 17 18 20 23 26 28 30 30 32 29 28 44 59 67 73 76 75 71 59 21 15 16 15 14 12 14
30 25 33 34 42 53 54 47 38 25 12 14 17 17 16 17 17 18 18 19 22 25 27 28 30 31 34 32 39 60 69 72 74 66 63 50 37 22 13 12 12 14 13
31 23 29 34 43 48 45 42 32 19 12 13 17 18 18 17 17 16 17 19 20 23 26 29 30 32 34 35 48 67 71 74 75 64 55 56 54 61 41 18 14 12 12
26 23 27 34 39 38 39 36 25 17 17 15 17 18 18 17 16 15 16 16 18 21 24 28 31 31 32 33 41 60 63 69 75 65 66 68 70 69 64 36 26 18 16
23 24 26 32 34 35 34 30 20 22 20 18 18 18 19 17 16 16 15 16 16 19 22 24 29 32 32 32 33 46 62 67 71 75 71 71 73 72 64 58 38 34 27
25 25 28 33 35 34 30 19 22 26 27 25 23 20 18 18 17 16 15 14 15 16 18 21 23 28 32 35 37 37 38 64 66 70 67 64 72 69 64 63 58 42 39
22 27 30 35 37 36 27 18 25 31 33 32 30 27 22 19 18 17 16 16 16 17 18 19 21 24 28 32 34 38 39 47 68 70 67 67 76 69 67 69 67 55 47
26 28 33 36 39 39 27 23 28 33 38 39 37 31 28 26 24 22 20 18 18 18 19 20 22 24 26 45 66 51 45 59 71 71 71 72 72 71 73 75 78 65 61
29 32 36 38 41 42 34 29 35 38 42 44 46 39 32 31 32 32 31 30 30 29 27 26 26 28 35 67 73 57 52 69 73 72 70 77 77 76 81 87 91 91 86
47 37 38 40 44 45 41 35 40 44 48 50 49 45 37 34 36 38 40 43 46 47 46 42 40 41 78 81 79 76 76 79 75 76 87 90 85 94 97 93 90 94 89
58 60 42 40 44 47 47 43 41 45 48 50 51 50 43 38 46 54 57 60 64 60 60 59 58 66 83 85 84 85 86 85 84 89 93 91 91 97 87 87 84 88 86
57 64 69 44 44 46 47 46 47 46 48 53 58 58 52 49 62 60 67 68 78 76 71 80 80 80 80 83 87 87 89 91 85 92 93 86 87 83 88 78 80 84 89
61 60 66 61 42 44 47 46 48 51 52 52 55 62 61 58 67 77 74 74 74 76 76 77 75 76 74 83 87 86 86 88 90 81 85 82 81 86 80 70 67 82 91
61 64 60 51 41 41 43 48 49 51 55 55 57 61 62 60 72 82 80 68 85 77 74 73 76 81 82 86 95 86 77 69 65 69 57 60 65 66 62 50 52 61 81
52 54 49 40 38 43 38 43 44 51 55 60 61 62 66 63 73 80 79 77 83 76 86 82 86 89 94 89 77 70 62 73 61 54 52 52 52 52 52 53 55 60 67
34 34 38 31 35 38 37 40 44 48 65 75 70 63 65 74 82 90 77 82 78 82 88 94 93 94 75 72 64 53 51 54 54 54 54 51 52 54 55 57 57 58 60
37 38 41 41 31 32 33 38 42 53 76 83 68 64 64 79 82 88 81 81 87 93 92 86 86 81 70 58 54 54 56 52 52 45 34 43 49 53 58 58 55 55 55
34 39 40 42 40 34 37 40 46 62 80 85 76 65 75 86 85 86 81 86 87 88 84 76 82 81 57 49 53 48 44 36 20 16 21 36 50 56 53 54 53 52 51
28 33 39 41 44 46 46 52 58 62 83 90 84 72 79 87 86 86 84 84 83 82 77 79 78 67 32 27 20 19 22 15 12 25 37 41 46 47 44 44 42 40 40
37 33 40 49 47 54 52 54 70 55 72 93 78 71 78 80 84 88 86 80 84 82 75 73 59 33 26 15 15 16 13 16 25 31 36 37 32 25 26 34 38 36 36
21 32 34 45 52 52 54 47 68 77 79 74 83 79 75 79 90 87 82 80 84 74 69 65 30 27 16 14 15 12 17 20 21 27 29 19 20 19 19 17 17 16 25
17 22 30 32 39 51 59 62 65 86 86 83 81 81 90 91 90 88 82 81 81 72 59 35 23 20 14 15 12 13 17 23 22 20 20 17 21 21 20 20 19 23 36
13 14 18 30 32 52 57 60 44 43 55 58 67 73 95 94 94 90 85 83 81 68 41 22 25 16 16 12 12 12 18 25 30 22 23 14 16 17 16 18 24 31 41
12 14 16 26 36 43 56 57 48 50 50 55 74 85 93 98 100 93 86 83 68 51 20 22 17 16 13 11 10 12 17 24 43 58 43 13 5 11 9 13 15 24 40
11 14 21 28 32 43 59 59 56 50 52 59 77 91 90 98 98 96 84 72 63 43 20 18 16 16 11 10 11 14 25 35 45 59 77 66 62 20 13 13 21 29 33

GFSSE_850_rhum_258.txt.gz
RH
46 53 52 57 59 51 46 30 12 14 14 15 17 18 18 17 19 22 24 25 26 26 22 19 20 32 42 44 59 62 58 47 28 24 20 19 16 15 15 14 14 16 20
38 49 49 54 57 54 49 39 15 13 15 15 17 18 18 18 19 22 24 26 28 29 29 26 31 45 58 62 65 68 70 58 50 47 57 53 36 29 20 15 14 13 13
33 45 48 50 55 56 50 44 20 13 15 15 17 18 19 19 19 22 24 26 29 31 32 32 30 36 50 61 67 66 62 58 56 56 66 67 59 52 41 34 24 17 14
30 42 42 47 55 56 51 44 25 14 16 16 16 17 17 18 19 20 24 27 30 33 34 35 35 37 48 64 68 69 68 65 67 68 70 71 65 66 68 60 44 36 27
33 35 36 45 53 56 52 41 25 13 15 17 16 16 16 16 18 20 22 27 30 33 34 36 37 37 42 61 67 68 69 69 69 69 71 74 70 70 74 72 61 51 44
31 30 34 42 51 55 51 37 22 11 13 16 16 16 15 14 16 18 20 23 25 29 32 35 37 39 41 53 62 65 68 69 67 64 64 72 75 74 80 86 79 62 58
32 29 32 40 48 53 45 32 19 12 12 15 16 15 14 13 14 15 16 19 22 25 28 32 36 39 40 41 41 43 57 68 70 68 67 75 78 77 87 94 91 86 79
31 26 32 39 46 49 37 29 16 15 14 15 15 15 14 13 13 14 16 17 19 22 24 27 29 32 38 43 44 43 58 64 70 70 72 74 78 82 97 94 92 90 86
31 26 30 37 46 45 34 26 16 18 18 19 18 17 16 15 14 15 16 17 19 21 22 24 26 28 48 66 53 44 53 72 75 72 73 76 78 93 97 96 92 93 87
30 29 32 36 41 40 35 26 17 23 25 25 24 22 21 21 20 21 22 23 25 26 26 25 25 28 56 70 51 66 76 76 76 78 87 86 86 92 93 92 84 91 85
32 30 32 35 36 36 33 23 20 27 30 31 28 26 25 26 28 30 32 35 42 43 41 38 36 45 51 75 75 73 83 83 83 87 80 84 83 86 90 90 85 79 82
35 30 31 31 30 34 31 23 20 28 34 36 36 32 28 29 32 35 39 45 52 54 53 50 47 64 74 78 82 86 87 86 86 82 71 85 86 86 82 84 84 68 64
31 28 27 30 31 30 28 25 20 26 32 37 40 40 39 34 33 38 43 54 65 71 68 60 66 73 79 81 83 86 83 87 79 69 57 69 71 74 77 75 68 55 49
33 28 28 28 32 32 32 28 22 23 29 35 40 45 47 43 38 39 52 60 68 75 71 76 79 79 77 82 85 88 83 76 76 66 60 54 50 49 51 49 48 50 50
41 34 29 29 31 32 34 34 31 26 26 29 36 41 46 48 47 46 55 66 71 78 76 76 76 76 80 82 83 84 82 60 57 60 54 48 45 48 47 44 48 54 59
40 41 39 34 32 32 30 31 32 33 32 32 33 36 42 48 51 51 58 71 73 71 83 76 80 80 82 86 86 82 78 67 58 53 46 46 48 42 40 49 53 56 58
28 37 42 45 46 45 40 33 32 33 37 40 39 40 41 48 54 55 55 74 80 70 83 78 79 86 86 89 84 81 79 62 43 43 46 40 26 27 37 44 49 54 55
35 36 37 44 45 44 43 44 36 33 34 38 42 45 48 51 56 60 59 67 76 74 78 76 81 86 90 88 84 75 62 51 45 46 38 26 23 33 44 50 52 51 49
32 30 33 39 39 45 52 54 51 38 37 39 42 45 49 53 59 64 62 71 76 78 79 78 82 84 88 91 89 76 57 54 49 38 27 25 35 43 46 46 44 41 38
39 39 36 39 38 43 56 57 56 50 40 40 42 43 49 53 62 68 69 77 82 82 80 79 83 89 91 93 91 71 53 42 30 26 23 30 36 37 36 34 33 30 25
46 47 40 38 37 43 48 56 50 37 38 39 37 43 46 56 73 66 67 79 84 86 86 85 88 95 94 92 84 62 44 34 25 22 30 34 34 33 32 26 22 17 14
29 42 43 41 41 40 43 44 54 47 40 41 41 38 44 55 74 63 61 70 84 89 95 95 92 90 94 91 74 55 33 25 22 28 34 35 33 30 23 20 15 14 16
17 26 35 36 41 40 42 52 61 62 54 50 42 43 44 54 70 74 62 66 81 88 92 91 89 87 86 82 75 37 19 17 23 32 36 37 36 27 18 14 16 14 12
13 16 28 35 50 59 56 52 53 47 50 40 42 41 43 49 66 79 75 72 77 89 92 92 91 85 86 80 65 36 19 18 18 21 27 28 29 26 16 15 14 12 12
13 13 14 19 36 45 51 60 60 62 47 55 51 48 47 51 57 76 75 73 80 93 96 95 93 88 87 74 62 29 18 16 16 18 17 22 26 20 16 18 15 13 15
19 20 19 16 16 24 44 54 60 59 66 73 63 57 54 52 59 70 76 67 73 86 85 86 93 88 83 71 51 26 16 16 18 16 15 18 20 16 17 15 13 17 16

GFSSE_850_rhum_261.txt.gz
RH
50 57 56 54 50 47 31 13 16 21 23 24 19 18 18 19 23 25 26 26 23 19 17 18 28 33 45 50 51 44 27 26 30 26 20 18 17 16 15 15 16 19 25
44 55 55 57 53 50 40 16 14 15 16 16 16 17 16 19 23 26 27 26 26 24 24 30 45 52 56 56 59 52 39 44 56 55 47 40 36 31 24 18 14 13 14
36 54 56 58 57 51 45 26 13 16 16 16 17 16 17 19 23 26 28 28 27 28 28 30 40 48 52 58 60 59 52 51 63 65 59 58 61 52 44 37 28 21 16
34 49 54 58 58 53 48 35 13 15 16 16 16 17 17 18 22 25 27 27 28 30 31 32 34 42 53 57 59 62 62 62 66 69 67 68 69 67 60 53 44 38 31
38 42 49 54 56 55 50 41 17 13 15 16 16 16 16 17 19 22 25 28 30 32 34 35 35 37 46 54 57 62 66 67 68 69 72 70 73 76 80 68 60 56 50
38 41 44 48 52 57 53 43 21 11 15 15 15 15 15 15 16 19 23 26 29 32 35 36 36 36 41 49 56 60 62 64 65 65 69 71 74 82 88 89 87 80 71
37 40 40 44 50 56 56 43 24 10 13 16 16 14 15 15 15 16 19 22 25 29 32 36 38 38 37 38 39 42 61 62 66 66 69 72 75 88 92 92 89 86 86
33 36 36 44 51 54 56 42 26 12 12 15 14 14 14 14 15 15 16 18 20 22 26 29 33 36 38 40 40 42 58 65 68 68 70 74 77 95 96 96 90 82 80
37 33 34 41 50 56 52 38 25 14 14 15 14 14 14 14 14 15 16 18 19 20 22 24 25 28 35 46 42 45 50 62 69 68 70 75 82 91 93 91 85 75 78
39 32 29 39 49 52 50 39 25 16 16 17 17 17 16 16 15 15 16 18 20 21 22 23 25 29 59 61 51 54 61 70 73 74 80 82 87 86 89 89 87 76 72
40 32 29 35 45 47 40 35 26 20 21 22 22 22 21 21 20 20 22 24 28 30 31 30 30 35 62 73 59 67 72 78 79 78 78 77 82 82 83 84 82 74 59
38 31 29 31 36 46 39 33 23 19 25 27 26 25 25 26 27 29 31 35 41 43 44 42 40 55 64 80 80 78 81 81 78 74 74 64 79 75 71 70 71 61 50
35 32 29 33 38 38 38 33 25 18 24 28 30 30 29 30 31 33 36 40 50 54 54 51 50 62 75 81 81 82 81 82 81 72 62 57 55 53 51 53 51 46 45
34 33 30 28 32 34 35 33 26 16 22 28 32 33 32 32 32 34 39 45 56 64 67 62 64 71 78 80 81 81 81 78 70 67 56 49 46 45 46 45 43 42 46
34 34 31 27 27 27 28 30 28 18 18 24 31 36 38 37 37 36 42 52 59 68 69 72 76 77 78 79 81 82 84 80 54 52 50 44 43 43 40 41 47 51 55
36 34 33 29 26 28 27 28 28 27 21 22 26 32 37 41 44 45 44 54 63 70 76 77 78 78 78 80 83 84 81 78 62 50 49 47 47 42 38 42 43 47 51
33 41 39 36 31 30 30 30 30 32 30 27 27 30 36 40 45 51 51 57 68 73 78 83 80 81 82 84 87 85 81 77 67 50 49 48 39 28 33 37 45 50 52
40 37 41 45 41 36 33 34 35 35 35 35 35 34 36 41 47 53 56 58 64 80 74 86 86 82 85 90 92 88 77 71 60 49 49 39 27 27 34 42 46 45 43
38 42 42 46 47 46 43 42 43 43 41 39 40 40 41 43 47 53 58 62 63 81 79 79 83 82 83 89 93 91 82 65 55 52 41 29 24 30 40 40 38 34 32
29 36 43 43 46 50 51 50 51 53 53 50 43 42 44 46 49 53 58 62 66 76 82 80 86 82 82 87 95 95 86 68 59 44 33 27 29 37 37 34 33 28 22
16 20 25 46 43 46 49 50 50 48 54 55 54 44 38 41 48 52 58 63 69 71 81 80 86 89 81 87 96 96 81 65 47 36 30 32 37 37 34 30 24 19 15
14 14 20 27 43 50 45 46 51 50 48 49 51 49 42 42 46 50 52 58 70 74 80 84 84 86 92 95 97 92 68 57 42 32 29 32 36 36 34 27 16 14 14
17 15 21 27 38 40 56 59 56 60 55 55 49 49 46 42 42 45 49 55 72 75 75 82 86 89 94 96 99 86 57 40 31 30 32 35 38 39 36 24 16 15 12
20 18 20 28 49 57 57 62 61 54 53 42 50 50 52 48 42 45 49 51 66 72 74 81 89 92 95 99 97 92 77 22 23 32 35 38 41 41 35 26 18 13 10
23 22 22 23 25 38 53 60 63 64 58 57 61 59 56 55 52 47 46 48 64 74 73 75 90 94 78 93 100 90 80 62 27 19 28 34 38 42 37 23 16 11 12
27 26 24 23 23 25 31 42 59 63 55 73 69 69 66 67 66 62 53 50 61 84 74 73 87 70 76 74 88 95 85 68 32 19 20 26 47 36 29 24 14 14 14

GFSSE_850_rhum_264.txt.gz
RH
59 62 49 46 35 20 34 43 46 42 38 41 28 18 17 21 23 24 24 22 18 15 17 22 28 34 35 36 21 21 28 26 22 19 18 15 14 15 15 15 64 38 25
59 51 50 48 44 26 21 22 25 25 32 26 18 17 18 22 24 24 24 23 20 18 24 31 35 40 42 44 32 33 46 46 41 35 36 36 26 22 18 16 14 12 14
64 48 51 49 48 36 20 14 16 17 19 18 18 17 18 21 23 24 25 24 24 23 24 30 37 40 45 45 44 33 37 53 52 54 66 66 49 38 34 29 25 21 15
68 45 51 52 50 46 33 17 14 15 17 17 17 17 17 19 22 24 26 26 26 26 27 30 36 45 47 48 45 45 44 54 56 54 68 67 71 51 48 42 39 36 29
69 39 49 52 51 50 46 30 13 15 16 17 18 17 17 18 20 23 26 27 28 27 28 29 33 42 49 50 54 54 54 59 60 67 66 75 73 70 65 56 58 55 50
71 51 41 50 52 52 50 42 18 14 16 18 18 18 18 18 19 20 23 26 27 28 28 29 30 32 40 45 50 55 56 57 63 68 78 67 85 79 79 77 76 72 66
70 62 42 50 51 54 52 47 27 12 16 16 17 17 17 18 17 19 20 22 25 28 29 30 31 32 32 33 37 42 54 60 80 70 74 75 83 78 79 78 71 69 70
74 56 42 48 53 56 55 49 33 13 14 16 17 17 18 18 17 18 19 21 22 24 26 27 30 31 33 35 36 38 49 57 73 76 71 70 74 78 75 76 72 64 65
77 38 43 44 48 56 59 51 36 16 12 15 16 17 17 18 17 17 18 20 21 22 23 24 26 28 30 33 35 39 42 54 78 72 71 70 78 80 78 79 76 71 70
46 37 44 47 48 55 62 56 39 19 12 14 15 16 16 16 18 17 18 19 20 21 22 24 24 25 41 56 53 47 54 63 77 77 73 77 82 75 86 84 76 75 63
37 40 43 46 53 58 62 58 45 25 17 16 16 16 16 17 16 17 18 20 20 22 23 25 26 28 46 57 54 56 64 81 82 76 75 79 72 72 67 76 78 76 57
40 40 42 39 46 53 72 59 46 31 22 20 20 20 20 32 26 49 24 23 26 30 31 32 32 35 49 82 84 71 83 86 86 81 76 60 66 71 68 70 69 65 50
68 42 39 41 43 45 64 64 46 46 30 25 24 25 24 60 45 26 41 29 35 40 43 43 42 48 83 84 81 86 87 94 81 81 80 55 58 59 59 52 53 46 47
70 59 47 40 41 43 71 53 63 64 47 34 33 27 33 35 56 54 68 65 52 69 72 76 74 75 92 94 93 93 96 86 81 77 73 52 47 45 45 45 39 37 40
66 67 55 46 32 34 46 74 55 70 48 32 31 28 32 37 48 54 71 70 72 78 83 84 79 85 92 95 96 96 96 92 85 65 66 48 42 44 42 32 34 40 45
60 66 41 38 34 31 34 41 41 47 64 34 46 33 30 36 48 51 58 60 77 82 84 85 85 88 90 90 97 95 98 89 83 67 64 62 42 39 33 33 38 43 47
54 60 40 37 35 32 31 35 38 46 42 66 41 28 29 34 42 42 55 69 77 84 92 94 96 94 89 92 96 97 92 85 81 75 68 77 48 42 37 45 43 44 45
50 57 64 46 38 37 33 37 46 70 57 58 66 45 26 31 38 41 58 74 81 90 95 97 97 90 95 94 92 90 87 81 79 73 65 66 69 64 40 39 42 42 40
49 58 67 64 45 41 42 39 38 42 46 53 58 60 40 29 33 41 57 80 74 89 93 95 97 98 97 94 90 87 82 73 74 66 58 51 42 53 54 35 35 33 30
44 56 65 74 62 56 54 50 51 50 47 61 66 61 50 42 37 38 54 77 77 88 90 98 98 100 97 93 83 78 88 76 70 65 59 50 43 31 39 46 35 41 21
32 49 59 70 75 81 72 68 68 62 77 66 56 53 53 49 48 46 53 82 87 89 90 93 97 100 98 98 90 90 91 87 78 68 62 53 52 40 49 37 46 50 47
24 19 48 60 75 85 84 87 86 83 77 80 77 61 53 54 50 46 52 75 88 90 95 94 92 99 100 92 91 96 87 81 77 69 59 56 60 57 58 38 44 22 30
33 26 29 46 69 82 88 87 91 94 90 83 70 60 60 57 52 50 49 49 64 85 87 94 92 98 99 94 91 88 81 75 63 64 66 61 66 59 59 57 34 23 16
38 31 29 25 32 69 86 89 89 87 87 79 75 72 65 54 48 50 51 52 45 52 66 80 92 96 100 96 95 97 92 72 54 53 59 65 69 69 65 61 59 34 15
30 26 25 27 42 46 73 90 89 89 89 88 89 92 92 93 80 73 61 57 55 50 54 69 85 96 98 98 82 70 99 94 86 50 47 59 69 67 68 70 64 64 20
33 27 27 26 28 44 55 76 92 92 87 88 90 89 91 94 98 85 86 77 66 61 59 63 87 88 85 82 76 80 87 86 84 81 54 46 57 61 65 72 60 65 34